SCP
0 0 0 0 0 0 0 0 0 0 0 0 0 0 0 0 0 0 0 0 0 0
0 0 0 0 0 0 0 0 0 0 0 0 0 0 0 0 0 0 0 0 0 0
0 0 0 0 0 0 0 0 0 0 0 0 0 0 0 0 0 0 0 0 0 0
0 0 0 0 0 0 0 0 0 0 0 0 0 0 0 0 0 0 0 0 0 0
0 0 0 0 0 0 0 0 0 0 0 0 0 0 0 0 0 0 0 0 0 0
0 0 0 0 0 0 0 0 0 0 0 0 0 0 0 0 0 0 0 0 0 0
0 0 0 0 0 0 0 0 0 0 0 0 0 0 0 0 0 0 0 0 0 0
0 0 0 0 0 0 0 0 0 0 0 0 0 0 0 0 0 0 0 0 0 0
0 0 0 0 0 0 0 0 0 0 0 0 0 0 0 0 0 0 0 0 0 0
0 0 0 0 0 0 0 0 0 0 0 0 0 0 0 0 0 0 0 0 0 0
0 0 0 0 0 0 0 0 0 0 0 0 0 0 0 0 0 0 0 0 0 0
0 0 0 0 0 0 0 0 0 0 0 0 0 0 0 0 0 0 0 0 0 0
0 0 0 0 0 0 0 0 0 0 0 0 0 0 0 0 0 0 0 0 0 0
0 0 0 0 0 0 0 0 0 0 0 0 0 0 0 0 0 0 0 0 0 0
Wind_Speed_500mb
77 83 84 85 90 89 85 80 76 86 93 92 91 92 87 96 104 99 91 78 80 79
63 70 75 79 85 89 85 78 73 76 86 87 89 87 96 86 82 80 81 83 79 82
47 54 60 67 77 85 84 79 74 72 81 84 83 86 80 82 85 88 88 80 82 84
41 48 52 58 66 73 79 82 73 69 76 83 87 86 86 90 84 92 79 81 84 82
44 49 52 55 60 66 73 78 70 64 68 69 85 84 88 85 95 81 84 88 84 78
48 55 55 55 59 65 71 73 71 68 70 69 75 78 89 93 85 87 91 89 84 80
53 55 63 64 63 65 68 70 71 73 72 72 78 78 83 88 82 91 91 83 76 80
63 68 74 71 69 68 68 65 66 72 72 74 82 79 83 81 89 89 89 78 78 78
71 72 72 68 70 71 72 66 65 72 74 77 79 83 81 82 84 88 87 79 79 74
66 71 73 72 71 73 72 67 66 70 74 76 76 80 79 79 81 84 81 78 79 80
51 57 63 69 71 71 69 68 67 70 71 70 75 75 75 74 75 78 79 75 75 82
49 50 53 57 61 65 66 66 67 67 70 68 73 71 73 72 74 78 73 70 77 83
52 54 53 49 49 53 57 59 58 60 66 68 68 70 71 72 71 75 74 69 73 73
46 44 42 40 41 41 44 46 49 53 57 61 58 59 60 63 69 68 73 72 76 75
Wind_Direction_500mb
248 251 254 254 258 259 258 256 254 244 237 236 238 236 242 238 242 238 233 237 242 235
254 255 256 255 259 261 261 258 255 246 238 236 240 234 241 238 239 238 237 241 240 237
261 260 260 258 255 261 265 261 255 248 236 236 240 235 237 237 239 239 234 236 239 238
266 263 263 261 261 260 261 262 257 251 239 236 237 235 235 239 240 233 235 241 240 238
271 269 264 265 263 264 261 261 259 250 241 240 236 237 239 239 234 236 244 242 241 234
278 274 271 269 265 263 263 261 254 247 238 239 238 237 238 238 238 244 244 241 238 228
273 279 276 270 265 262 263 260 252 246 243 241 241 241 241 239 243 242 241 238 233 227
275 278 275 270 267 265 264 260 252 245 244 242 241 240 244 241 242 242 239 232 227 222
274 271 272 269 267 266 266 262 252 244 243 241 243 241 242 243 243 240 238 230 221 213
274 272 270 270 267 265 264 264 258 248 244 243 244 245 244 243 243 240 235 226 216 206
276 272 270 268 266 264 262 261 257 249 247 249 248 246 243 242 243 238 232 222 220 210
279 275 272 268 266 264 261 259 256 250 244 248 249 247 245 242 239 234 225 219 217 210
281 278 275 270 264 262 261 260 257 252 246 247 246 244 243 240 234 226 216 210 214 210
285 279 272 265 258 255 252 253 251 249 248 248 250 245 240 235 231 224 215 205 207 209
Wind_Speed_850mb
77 83 84 85 90 89 85 80 76 86 93 92 91 92 87 96 104 99 91 78 80 79
63 70 75 79 85 89 85 78 73 76 86 87 89 87 96 86 82 80 81 83 79 82
47 54 60 67 77 85 84 79 74 72 81 84 83 86 80 82 85 88 88 80 82 84
41 48 52 58 66 73 79 82 73 69 76 83 87 86 86 90 84 92 79 81 84 82
44 49 52 55 60 66 73 78 70 64 68 69 85 84 88 85 95 81 84 88 84 78
48 55 55 55 59 65 71 73 71 68 70 69 75 78 89 93 85 87 91 89 84 80
53 55 63 64 63 65 68 70 71 73 72 72 78 78 83 88 82 91 91 83 76 80
63 68 74 71 69 68 68 65 66 72 72 74 82 79 83 81 89 89 89 78 78 78
71 72 72 68 70 71 72 66 65 72 74 77 79 83 81 82 84 88 87 79 79 74
66 71 73 72 71 73 72 67 66 70 74 76 76 80 79 79 81 84 81 78 79 80
51 57 63 69 71 71 69 68 67 70 71 70 75 75 75 74 75 78 79 75 75 82
49 50 53 57 61 65 66 66 67 67 70 68 73 71 73 72 74 78 73 70 77 83
52 54 53 49 49 53 57 59 58 60 66 68 68 70 71 72 71 75 74 69 73 73
46 44 42 40 41 41 44 46 49 53 57 61 58 59 60 63 69 68 73 72 76 75
Wind_Direction_850mb
248 251 254 254 258 259 258 256 254 244 237 236 238 236 242 238 242 238 233 237 242 235
254 255 256 255 259 261 261 258 255 246 238 236 240 234 241 238 239 238 237 241 240 237
261 260 260 258 255 261 265 261 255 248 236 236 240 235 237 237 239 239 234 236 239 238
266 263 263 261 261 260 261 262 257 251 239 236 237 235 235 239 240 233 235 241 240 238
271 269 264 265 263 264 261 261 259 250 241 240 236 237 239 239 234 236 244 242 241 234
278 274 271 269 265 263 263 261 254 247 238 239 238 237 238 238 238 244 244 241 238 228
273 279 276 270 265 262 263 260 252 246 243 241 241 241 241 239 243 242 241 238 233 227
275 278 275 270 267 265 264 260 252 245 244 242 241 240 244 241 242 242 239 232 227 222
274 271 272 269 267 266 266 262 252 244 243 241 243 241 242 243 243 240 238 230 221 213
274 272 270 270 267 265 264 264 258 248 244 243 244 245 244 243 243 240 235 226 216 206
276 272 270 268 266 264 262 261 257 249 247 249 248 246 243 242 243 238 232 222 220 210
279 275 272 268 266 264 261 259 256 250 244 248 249 247 245 242 239 234 225 219 217 210
281 278 275 270 264 262 261 260 257 252 246 247 246 244 243 240 234 226 216 210 214 210
285 279 272 265 258 255 252 253 251 249 248 248 250 245 240 235 231 224 215 205 207 209